Cartersville, GA

10:53 AM EDT on August 18, 2017 (GMT -0400)
Cartersville

Weather History for KVPC - January, 2014

Change the Weather History Date:

Tuesday, January 14, 2014

  Actual Average Record
Temperature  
Mean Temperature 45 °F 41 °F  
Max Temperature 58 °F 52 °F 74 °F (2017)
Min Temperature 32 °F 30 °F 16 °F (2011)
Degree Days  
Heating Degree Days 20 24  
Month to date heating degree days 365 336  
Since 1 July heating degree days 1639 1638  
Moisture  
Dew Point 42 °F    
Average Humidity 67    
Maximum Humidity 93    
Minimum Humidity 40    
Precipitation  
Precipitation 0.08 in 0.13 in 1.16 in (1972)
Month to date precipitation 2.16 1.73  
Year to date precipitation 2.16 1.73  
Snow  
Snow 0.00 in - - ()
Month to date snowfall 0.0  
Since 1 July snowfall 0.0  
Snow Depth 0.00 in    
Sea Level Pressure  
Sea Level Pressure 29.91 in    
Wind  
Wind Speed 1 mph (NNW)    
Max Wind Speed 8 mph    
Max Gust Speed 13 mph    
Visibility 8 miles    
Events Rain    
T = Trace of Precipitation, MM = Missing Value Source: NWS Daily Summary

Daily Weather History Graph

Daily Weather History Graph

Search for Another Location

Airport or City:

Trip Planner

Search our weather history database for the weather conditions in past years. The results will help you decide how hot, cold, wet, or windy it might be!

Date:

Astronomy

Jan. 14, 2014 Rise Set
Actual Time 7:45 AM EST 5:52 PM EST
Civil Twilight 7:17 AM EST 6:19 PM EST
Nautical Twilight 6:47 AM EST 6:50 PM EST
Astronomical Twilight 6:16 AM EST 7:20 PM EST
Moon 4:55 PM EST (1/14) 6:20 AM EST (1/14)
Length of Visible Light 11h 01m
Length of Day
10h 07m
Waxing Gibbous, 98% of the Moon is Illuminated
Jan 14
Waxing Gibbous
Jan 15
Full
Jan 24
Last Quarter
Jan 30
New
Feb 6
First Quarter

Hourly Weather History & Observations

Time (EST) Temp. Dew Point Humidity Pressure Visibility Wind Dir Wind Speed Gust Speed Precip Events Conditions
12:53 AM 48.0 °F 46.9 °F 96% 29.85 in 10.0 mi Calm Calm - 0.00 in   Overcast
1:53 AM 48.0 °F 46.9 °F 96% 29.82 in 10.0 mi Calm Calm - N/A   Overcast
2:53 AM 48.0 °F 46.9 °F 96% 29.81 in 7.0 mi Calm Calm - 0.01 in Rain Light Rain
3:18 AM 48.2 °F 46.4 °F 93% 29.83 in 2.5 mi Calm Calm - 0.05 in Rain Rain
3:27 AM 48.2 °F 46.4 °F 93% 29.82 in 4.0 mi Calm Calm - 0.05 in Rain Light Rain
3:53 AM 48.0 °F 46.9 °F 96% 29.81 in 5.0 mi Calm Calm - 0.05 in Rain Light Rain
4:36 AM 48.2 °F 46.4 °F 93% 29.83 in 2.0 mi Calm Calm - 0.00 in   Overcast
4:45 AM 48.2 °F 46.4 °F 93% 29.83 in 1.5 mi Calm Calm - 0.01 in Rain Light Rain
4:53 AM 48.0 °F 46.9 °F 96% 29.83 in 1.5 mi Calm Calm - 0.02 in Rain Light Rain
5:08 AM 48.2 °F 46.4 °F 93% 29.85 in 3.0 mi Calm Calm - 0.00 in   Overcast
5:33 AM 50.0 °F 48.2 °F 94% 29.85 in 6.0 mi Calm Calm - 0.00 in   Overcast
5:53 AM 48.9 °F 48.0 °F 97% 29.83 in 10.0 mi NW 3.5 mph - 0.00 in   Overcast
6:11 AM 48.2 °F 46.4 °F 93% 29.84 in 10.0 mi Calm Calm - N/A   Overcast
6:23 AM 48.2 °F 46.4 °F 93% 29.86 in 10.0 mi Calm Calm - N/A   Overcast
6:32 AM 48.2 °F 46.4 °F 93% 29.87 in 9.0 mi Calm Calm - N/A   Overcast
6:53 AM 48.9 °F 46.9 °F 93% 29.87 in 10.0 mi Calm Calm - N/A   Overcast
7:20 AM 48.2 °F 46.4 °F 93% 29.91 in 10.0 mi Calm Calm - N/A   Overcast
7:29 AM 48.2 °F 46.4 °F 93% 29.91 in 10.0 mi Calm Calm - N/A   Overcast
7:53 AM 46.9 °F 45.0 °F 93% 29.92 in 10.0 mi Calm Calm - N/A   Mostly Cloudy
8:00 AM 46.4 °F 44.6 °F 93% 29.93 in 9.0 mi Calm Calm - N/A   Partly Cloudy
8:53 AM 46.9 °F 45.0 °F 93% 29.94 in 10.0 mi Calm Calm - N/A   Clear
9:53 AM 50.0 °F 43.0 °F 77% 29.97 in 10.0 mi Calm Calm - N/A   Clear
10:53 AM 52.0 °F 42.1 °F 69% 29.99 in 10.0 mi Calm Calm - N/A   Clear
11:53 AM 54.0 °F 39.9 °F 59% 29.97 in 10.0 mi Variable 4.6 mph - N/A   Clear
12:53 PM 55.9 °F 37.0 °F 49% 29.94 in 10.0 mi Variable 3.5 mph - N/A   Partly Cloudy
1:53 PM 55.9 °F 36.0 °F 47% 29.94 in 10.0 mi NNW 8.1 mph - N/A   Clear
2:53 PM 57.0 °F 34.0 °F 42% 29.93 in 10.0 mi Variable 3.5 mph - N/A   Clear
3:53 PM 57.0 °F 36.0 °F 45% 29.95 in 10.0 mi Variable 4.6 mph - N/A   Clear
4:53 PM 55.0 °F 35.1 °F 47% 29.97 in 10.0 mi Variable 3.5 mph - N/A   Clear
5:53 PM 48.9 °F 35.1 °F 59% 29.98 in 10.0 mi Calm Calm - N/A   Clear
6:53 PM 39.9 °F 36.0 °F 86% 29.99 in 10.0 mi Calm Calm - N/A   Clear
7:53 PM 39.0 °F 34.0 °F 82% 30.00 in 10.0 mi Calm Calm - N/A   Clear
8:53 PM 36.0 °F 33.1 °F 89% 30.01 in 10.0 mi Calm Calm - N/A   Clear
9:53 PM 36.0 °F 33.1 °F 89% 30.02 in 10.0 mi Calm Calm - N/A   Clear
10:53 PM 33.1 °F 30.9 °F 92% 30.02 in 10.0 mi Calm Calm - N/A   Clear
11:53 PM 32.0 °F 30.9 °F 96% 30.00 in 10.0 mi Calm Calm - N/A   Clear